NG7M Weather Reports


time (UTC)temp
C
wind
direction
speed
KPH
gust
KPH
rain 1hr
cm
rain 24hr
cm
rain mn
cm
humidity
%
barometer
mb
20260502190005 21 285 0.0 0.0 0.00 0.00 0.00 17 1019.5
20260502185503 21 285 0.0 0.0 0.00 0.00 0.00 18 1019.5
20260502185004 21 244 0.0 0.0 0.00 0.00 0.00 19 1019.6
20260502184004 20 258 0.0 0.0 0.00 0.00 0.00 20 1019.7
20260502183504 20 236 0.0 0.0 0.00 0.00 0.00 18 1019.8
20260502183004 20 183 0.0 0.0 0.00 0.00 0.00 20 1019.9
20260502182504 20 202 0.0 0.0 0.00 0.00 0.00 19 1019.9
20260502182004 20 171 0.0 0.0 0.00 0.00 0.00 19 1020.0
20260502181504 20 184 0.0 0.0 0.00 0.00 0.00 18 1020.0
20260502181004 20 208 0.0 0.0 0.00 0.00 0.00 17 1020.0
20260502170503 19 192 0.0 0.0 0.00 0.00 0.00 21 1020.3
20260502164003 18 227 0.0 0.0 0.00 0.00 0.00 25 1020.3
20260502163504 18 222 0.0 0.0 0.00 0.00 0.00 24 1020.3
20260502163003 17 233 0.0 0.0 0.00 0.00 0.00 24 1020.3
20260502162504 17 231 0.0 0.0 0.00 0.00 0.00 25 1020.3
20260502162003 17 232 0.0 0.0 0.00 0.00 0.00 25 1020.3
20260502161504 17 207 0.0 0.0 0.00 0.00 0.00 26 1020.3
20260502161004 17 207 0.0 0.0 0.00 0.00 0.00 27 1020.3
20260502160504 16 204 0.0 0.0 0.00 0.00 0.00 29 1020.4
20260502152004 14 134 0.0 0.0 0.00 0.00 0.00 31 1020.5
20260502151503 14 134 0.0 0.0 0.00 0.00 0.00 31 1020.5
20260502151004 13 132 0.0 0.0 0.00 0.00 0.00 32 1020.5
20260502150503 13 132 0.0 0.0 0.00 0.00 0.00 30 1020.5
20260502130503 8 331 0.0 0.0 0.00 0.00 0.00 44 1020.0
20260502123503 7 331 0.0 0.0 0.00 0.00 0.00 49 1019.8
20260502123004 6 92 0.0 0.0 0.00 0.00 0.00 51 1019.8
20260502122503 6 92 0.0 0.0 0.00 0.00 0.00 55 1019.8
20260502122004 6 92 0.0 0.0 0.00 0.00 0.00 56 1019.7
20260502121503 6 92 0.0 0.0 0.00 0.00 0.00 57 1019.7
20260502121004 6 92 0.0 0.0 0.00 0.00 0.00 57 1019.7
20260502115504 6 92 0.0 0.0 0.00 0.00 0.00 56 1019.7
20260502115004 6 92 0.0 0.0 0.00 0.00 0.00 56 1019.7
20260502114504 7 92 0.0 0.0 0.00 0.00 0.00 56 1019.7
20260502114003 7 92 0.0 0.0 0.00 0.00 0.00 56 1019.7
20260502113504 7 92 0.0 0.0 0.00 0.00 0.00 57 1019.7
20260502113004 7 92 0.0 0.0 0.00 0.00 0.00 57 1019.8
20260502112504 7 92 0.0 0.0 0.00 0.00 0.00 58 1019.7
20260502112003 7 90 0.0 0.0 0.00 0.00 0.00 57 1019.7
20260502111504 7 90 0.0 0.0 0.00 0.00 0.00 57 1019.7
20260502111003 7 90 0.0 0.0 0.00 0.00 0.00 56 1019.6
20260502110504 7 90 0.0 0.0 0.00 0.00 0.00 54 1019.5
20260502110004 7 90 0.0 0.0 0.00 0.00 0.00 55 1019.8
20260502105504 7 90 0.0 0.0 0.00 0.00 0.00 55 1019.8
20260502104504 7 90 0.0 0.0 0.00 0.00 0.00 55 1019.8
20260502104003 7 90 0.0 0.0 0.00 0.00 0.00 55 1019.8
20260502103503 7 90 0.0 0.0 0.00 0.00 0.00 55 1019.8
20260502103004 7 90 0.0 0.0 0.00 0.00 0.00 55 1019.8
20260502102503 7 90 0.0 0.0 0.00 0.00 0.00 54 1019.8
20260502102004 7 90 0.0 0.0 0.00 0.00 0.00 53 1019.8
20260502101503 8 90 0.0 0.0 0.00 0.00 0.00 53 1019.8
20260502101004 8 90 0.0 0.0 0.00 0.00 0.00 53 1019.6
20260502100504 8 90 0.0 0.0 0.00 0.00 0.00 52 1019.6
20260502090504 8 138 0.0 0.0 0.00 0.00 0.00 51 1019.6
20260502071504 10 132 0.0 0.0 0.00 0.00 0.00 47 1019.4
20260502071003 10 132 0.0 0.0 0.00 0.00 0.00 47 1019.4
20260502070503 10 132 0.0 0.0 0.00 0.00 0.00 46 1019.4
20260502064504 10 132 0.0 0.0 0.00 0.00 0.00 46 1019.4
20260502064003 10 132 0.0 0.0 0.00 0.00 0.00 46 1019.4
20260502063503 10 133 0.0 0.0 0.00 0.00 0.00 47 1019.4
20260502063003 10 137 0.0 0.0 0.00 0.00 0.00 47 1019.5
20260502062505 10 170 0.0 0.0 0.00 0.00 0.00 47 1019.5
20260502062004 10 202 0.0 0.0 0.00 0.00 0.00 47 1019.5
20260502061505 10 335 0.0 0.0 0.00 0.00 0.00 48 1019.5
20260502061004 10 342 0.0 0.0 0.00 0.00 0.00 48 1019.4
20260502060504 10 214 0.0 0.0 0.00 0.00 0.00 48 1019.5
20260502055504 10 233 0.0 0.0 0.00 0.00 0.00 46 1019.5
20260502055003 11 229 0.0 0.0 0.00 0.00 0.00 42 1019.4
20260502054504 12 77 0.0 0.0 0.00 0.00 0.00 38 1019.4
20260502054004 11 77 0.0 0.0 0.00 0.00 0.00 40 1019.3
20260502053503 12 78 0.0 0.0 0.00 0.00 0.00 40 1019.3
20260502052503 12 77 0.0 0.0 0.00 0.00 0.00 40 1019.3
20260502052004 12 40 0.0 0.0 0.00 0.00 0.00 41 1019.3
20260502051504 12 0 0.0 0.0 0.00 0.00 0.00 40 1019.4
20260502050503 12 79 0.0 0.0 0.00 0.00 0.00 39 1019.3
20260502050004 12 78 0.0 0.0 0.00 0.00 0.00 38 1019.2
20260502045504 12 78 0.0 0.0 0.00 0.00 0.00 37 1019.2
20260502044504 13 0 0.0 0.0 0.00 0.00 0.00 37 1019.3
20260502044004 13 0 0.0 0.0 0.00 0.00 0.00 36 1019.2
20260502043504 12 0 0.0 0.0 0.00 0.00 0.00 38 1019.2
20260502043004 12 0 0.0 0.0 0.00 0.00 0.00 40 1019.2
20260502041504 13 0 0.0 0.0 0.00 0.00 0.00 41 1018.8
20260502041003 13 0 0.0 0.0 0.00 0.00 0.00 42 1018.8
20260502040003 13 0 0.0 0.0 0.00 0.00 0.00 43 1018.7
20260502035504 13 353 0.0 0.0 0.00 0.00 0.00 43 1018.7
20260502035003 13 0 0.0 0.0 0.00 0.00 0.00 43 1018.7
20260502034503 13 351 0.0 0.0 0.00 0.00 0.00 42 1018.7
20260502034004 13 357 0.0 0.0 0.00 0.00 0.00 42 1018.7
20260502033003 13 0 0.0 0.0 0.00 0.00 0.00 40 1018.6
20260502032503 14 346 0.0 0.0 0.00 0.00 0.00 40 1018.5
20260502032004 14 352 0.0 0.0 0.00 0.00 0.00 40 1018.4
20260502031004 15 306 0.0 0.0 0.00 0.00 0.00 38 1018.2
20260502030503 15 306 0.0 0.0 0.00 0.00 0.00 38 1018.2
20260502030004 15 305 0.0 0.0 0.00 0.00 0.00 38 1018.2
20260502025504 15 307 0.0 0.0 0.00 0.00 0.00 38 1018.2
20260502025003 15 306 0.0 0.0 0.00 0.00 0.00 38 1018.2
20260502024504 15 306 0.0 0.0 0.00 0.00 0.00 38 1018.2
20260502024004 15 306 0.0 0.0 0.00 0.00 0.00 38 1018.2
20260502023503 15 306 0.0 0.0 0.00 0.00 0.00 37 1018.0
20260502022503 16 0 0.0 0.0 0.00 0.00 0.00 34 1018.0
20260502022004 16 0 0.0 0.0 0.00 0.00 0.00 32 1017.7
20260502021503 16 0 0.0 0.0 0.00 0.00 0.00 31 1017.7
20260502020004 16 297 0.0 0.0 0.00 0.00 0.00 30 1017.6
20260502015504 16 282 0.0 0.0 0.00 0.00 0.00 30 1017.6
20260502015003 17 266 0.0 0.0 0.00 0.00 0.00 31 1017.7
20260502014504 17 275 0.0 0.0 0.00 0.00 0.00 33 1017.7
20260502014003 17 274 0.0 0.0 0.00 0.00 0.00 31 1017.7
20260502013503 17 273 0.0 0.0 0.00 0.00 0.00 29 1017.7
20260502013004 17 252 0.0 0.0 0.00 0.00 0.00 28 1017.6
20260502012503 18 279 0.0 0.0 0.00 0.00 0.00 27 1017.6
20260502012004 18 259 0.0 0.0 0.00 0.00 0.00 26 1017.6
20260502011503 18 273 0.0 0.0 0.00 0.00 0.00 26 1017.8
20260502011003 18 266 0.0 0.0 0.00 0.00 0.00 25 1017.8
20260502010503 18 274 0.0 0.0 0.00 0.00 0.00 27 1017.8
20260502005503 18 275 0.0 0.0 0.00 0.00 0.00 25 1017.7
20260502005004 18 262 0.0 0.0 0.00 0.00 0.00 26 1017.6
20260502004004 18 262 0.0 0.0 0.00 0.00 0.00 29 1017.7
20260502003504 19 261 0.0 0.0 0.00 0.00 0.00 23 1017.7
20260502003004 19 263 0.0 0.0 0.00 0.00 0.00 22 1017.7
20260502002504 19 308 0.0 0.0 0.00 0.00 0.00 20 1017.7
20260502001503 19 288 0.0 0.0 0.00 0.00 0.00 20 1017.8
20260502001004 19 268 0.0 0.0 0.00 0.00 0.00 21 1017.8
20260502000503 19 272 0.0 0.0 0.00 0.00 0.00 20 1017.8
20260502000003 19 294 0.0 0.0 0.00 0.00 0.00 21 1017.8
20260501235504 19 355 0.0 0.0 0.00 0.00 0.00 19 1017.8
20260501235004 19 322 0.0 0.0 0.00 0.00 0.00 22 1018.1
20260501234504 19 302 0.0 0.0 0.00 0.00 0.00 21 1018.1
20260501234004 19 331 0.0 0.0 0.00 0.00 0.00 20 1018.1
20260501233503 19 321 0.0 0.0 0.00 0.00 0.00 21 1018.1
20260501233004 18 328 0.0 0.0 0.00 0.00 0.00 21 1018.1
20260501232503 19 319 0.0 0.0 0.00 0.00 0.00 21 1018.1
20260501232004 19 330 0.0 0.0 0.00 0.00 0.00 20 1018.1
20260501231503 19 301 0.0 0.0 0.00 0.00 0.00 20 1018.1
20260501231004 18 352 0.0 0.0 0.00 0.00 0.00 20 1018.1
20260501230504 19 310 0.0 0.0 0.00 0.00 0.00 20 1018.2
20260501230004 19 311 0.0 0.0 0.00 0.00 0.00 20 1018.2
20260501225504 18 347 0.0 0.0 0.00 0.00 0.00 20 1018.2
20260501225003 19 311 0.0 0.0 0.00 0.00 0.00 19 1018.2
20260501224004 18 329 0.0 0.0 0.00 0.00 0.00 20 1018.2
20260501223504 18 316 0.0 0.0 0.00 0.00 0.00 20 1018.3
20260501222004 19 335 0.0 0.0 0.00 0.00 0.00 19 1018.5
20260501221504 18 292 0.0 0.0 0.00 0.00 0.00 20 1018.6
20260501221004 18 311 0.0 0.0 0.00 0.00 0.00 20 1018.6
20260501220504 18 325 0.0 0.0 0.00 0.00 0.00 20 1018.7
20260501220003 18 319 0.0 0.0 0.00 0.00 0.00 20 1018.7
20260501215504 18 322 0.0 0.0 0.00 0.00 0.00 21 1018.9
20260501215004 18 323 0.0 0.0 0.00 0.00 0.00 20 1018.9
20260501214504 18 302 0.0 0.0 0.00 0.00 0.00 22 1018.9
20260501214003 18 293 0.0 0.0 0.00 0.00 0.00 23 1019.1
20260501213504 18 306 0.0 0.0 0.00 0.00 0.00 22 1018.8
20260501213003 18 287 0.0 0.0 0.00 0.00 0.00 23 1019.1
20260501212503 18 321 0.0 0.0 0.00 0.00 0.00 23 1019.1
20260501212004 18 310 0.0 0.0 0.00 0.00 0.00 23 1018.8
20260501211504 18 321 0.0 0.0 0.00 0.00 0.00 22 1018.9
20260501211003 18 288 0.0 0.0 0.00 0.00 0.00 22 1018.9
20260501210503 18 316 0.0 0.0 0.00 0.00 0.00 23 1019.3
20260501210003 18 306 0.0 0.0 0.00 0.00 0.00 23 1019.0
20260501205504 18 324 0.0 0.0 0.00 0.00 0.00 21 1019.0
20260501204004 18 298 0.0 0.0 0.00 0.00 0.00 22 1019.3
20260501203504 18 326 0.0 0.0 0.00 0.00 0.00 22 1019.2
20260501203003 17 314 0.0 0.0 0.00 0.00 0.00 24 1019.2
20260501202504 17 282 0.0 0.0 0.00 0.00 0.00 24 1019.2
20260501202003 17 267 0.0 0.0 0.00 0.00 0.00 26 1019.3
20260501201504 17 271 0.0 0.0 0.00 0.00 0.00 26 1019.3
20260501201004 17 301 0.0 0.0 0.00 0.00 0.00 27 1019.3
20260501200503 17 279 0.0 0.0 0.00 0.00 0.00 24 1019.3
20260501200004 17 301 0.0 0.0 0.00 0.00 0.00 25 1019.3
20260501195004 17 266 0.0 0.0 0.00 0.00 0.00 25 1019.4
20260501194503 17 272 0.0 0.0 0.00 0.00 0.00 29 1019.5
20260501194003 17 245 0.0 0.0 0.00 0.00 0.00 26 1019.5
20260501193003 17 246 0.0 0.0 0.00 0.00 0.00 26 1019.5
20260501192503 17 241 0.0 0.0 0.00 0.00 0.00 25 1019.5
20260501192003 17 238 0.0 0.0 0.00 0.00 0.00 27 1019.5
20260501191504 16 251 0.0 0.0 0.00 0.00 0.00 26 1019.9
20260501191003 16 247 0.0 0.0 0.00 0.00 0.00 27 1019.9
20260501190503 16 262 0.0 0.0 0.00 0.00 0.00 25 1019.9